2025-234D

Last updated on Mon Oct 20 2025 00:02:08 GMT+0000 (Coordinated Universal Time)

1 66056U 25234D 25292.45443278 .00007862 00000+0 35678-3 0 9990 2 66056 97.4583 358.1261 0014288 280.9500 79.0128 15.20991098 49
UTC large
Height (km)
Speed (km/s)
/
Latitude / Longitude
Inclination (degrees)
Orbital Period (minutes)
Azimuth
Elevation
Range (km)
Doppler Factor

Next 0 passes for location: London (51.5072 / 0.1276)

Sorry there are no passes over London.